Location: Newark
(52.8300°N, 8.0000°E)
Time: 19:16:24
(UTC+00:00)

STARLINK-1108 - Pass Details

Date: 01 February 2020
Orbit: 349 x 351 km, 53.0° (Epoch: 21 February)

Event Time Altitude Azimuth Distance (km) Brightness Sun altitude
Rises 17:20:25 0° 283° (WNW) 2,181 7.9 -10.4°
Reaches altitude 10° 17:22:41 10° 267° (W) 1,333 7.1 -10.8°
Maximum altitude 17:25:05 22° 214° (SSW) 837 5.2 -11.1°
Drops below altitude 10° 17:27:28 10° 160° (SSE) 1,328 5.5 -11.5°
Enters shadow 17:29:47 - 144° (SE) 2,190 6.5 -11.8°
